[[{"header":{"parameterUnit":"m.s-1","parameterCategory":1,"la1":30.2992,"la2":30.254,"lo1":-89.0895,"lo2":-89.0443,"dy":0.0025,"dx":0.0025,"nx":19,"ny":19,"refTime":"2026-05-21T03:00:00:Z","depth":0,"parameterNumber":2,"parameterNumberName":"U-component_of_WINDS"},"data":[0,0,0,-1.5876,-1.5878,-1.5999,-1.6,-1.6136,-1.6137,0,0,0,0,0,0,0,0,0,0,0,-1.5826,-1.5826,-1.5876,-1.5878,-1.5999,-1.6,-1.6136,-1.6137,0,0,0,0,0,0,0,0,0,0,0,-1.5826,-1.5826,-1.5827,-1.5879,-1.5999,-1.6,-1.6135,-1.6052,0,0,0,0,0,0,0,0,0,0,-1.5938,-1.5877,-1.5826,-1.5827,-1.5879,-1.5999,-1.6,-1.6048,-1.6057,-1.6072,0,-1.6079,0,-1.611,-1.6144,-1.6145,0,0,0,-1.589,-1.5869,-1.5914,-1.5827,-1.588,-1.5999,-1.5948,-1.6053,-1.6063,-1.6084,-1.6082,-1.6087,-1.6112,-1.6145,-1.6146,-1.6189,-1.6189,0,0,-1.5883,-1.5841,-1.5907,-1.592,-1.5897,-1.5944,-1.5951,-1.6059,-1.6056,-1.6082,-1.6091,-1.6114,-1.6146,-1.6147,-1.619,-1.6189,0,0,0,-1.5856,-1.5836,-1.5879,-1.5914,-1.5937,-1.5947,-1.5956,-1.6051,-1.6068,-1.6093,-1.6116,-1.6147,-1.6148,-1.619,-1.619,-1.613,0,0,0,-1.5853,-1.582,-1.5875,-1.5851,-1.5934,-1.5995,-1.5944,-1.6061,-1.6074,-1.6115,-1.6147,-1.6149,-1.6191,-1.619,-1.6133,-1.611,0,0,0,-1.5823,-1.5817,-1.5829,-1.5848,-1.5898,-1.5994,-1.6018,-1.6065,-1.6088,-1.6145,-1.6149,-1.6191,-1.619,-1.6135,-1.6114,-1.6108,0,0,0,-1.578,-1.5777,-1.5828,-1.5834,-1.5897,-1.5956,-1.6018,-1.6065,-1.6106,-1.6147,-1.619,-1.619,-1.6136,-1.6116,-1.611,-1.6095,-1.6085,0,0,-1.5753,-1.5772,-1.5779,-1.5828,-1.5866,-1.5941,-1.5972,-1.6052,-1.6098,-1.6157,-1.6159,-1.6132,-1.6114,-1.6108,-1.6043,-1.6034,0,0,0,-1.5756,-1.5761,-1.578,-1.5816,-1.5875,-1.5924,-1.6003,-1.6033,-1.6085,-1.6118,-1.613,-1.6121,-1.6119,-1.6114,-1.6107,-1.6109,-1.6185,-1.6185,-1.6186,-1.5658,-1.5714,-1.5729,-1.5799,-1.5834,-1.5914,-1.5949,-1.6003,-1.6052,-1.6053,-1.6071,-1.6024,-1.6016,-1.6011,-1.6012,-1.6068,-1.6068,-1.6068,-1.6068,-1.5623,-1.5638,-1.57,-1.5736,-1.5796,-1.5829,-1.5907,-1.5941,-1.5981,-1.6016,-1.6018,-1.605,-1.6,-1.6004,-1.6064,-1.6065,-1.6065,-1.6066,-1.6066,-1.5565,-1.5581,-1.5615,-1.5672,-1.5711,-1.5784,-1.5818,-1.5873,-1.5926,-1.5927,-1.5952,-1.5953,-1.596,-1.5935,-1.5935,-1.5934,-1.5934,-1.5934,-1.5934,-1.549,-1.553,-1.5551,-1.5612,-1.5642,-1.5689,-1.5769,-1.5802,-1.5851,-1.5889,-1.5889,-1.5937,-1.5984,-1.5994,-1.5932,-1.5932,-1.5933,-1.5933,-1.5933,-1.5433,-1.5454,-1.5486,-1.5515,-1.5592,-1.5626,-1.5695,-1.5755,-1.579,-1.5806,-1.5854,-1.5879,-1.5904,-1.591,-1.5919,-1.5841,-1.5841,-1.5841,-1.5841,-1.5383,-1.54,-1.5445,-1.5488,-1.5537,-1.5602,-1.5639,-1.5702,-1.5771,-1.5796,-1.5816,-1.5833,-1.5836,-1.5859,-1.5867,-1.5876,-1.5788,-1.5788,-1.5788,-1.5351,-1.5375,-1.5394,-1.5458,-1.5522,-1.5576,-1.5612,-1.5662,-1.5745,-1.5787,-1.5818,-1.582,-1.5847,-1.5853,-1.5895,-1.5905,-1.5923,0,0]},{"header":{"parameterUnit":"m.s-1","parameterCategory":1,"la1":30.2992,"la2":30.254,"lo1":-89.0895,"lo2":-89.0443,"dy":0.0025,"dx":0.0025,"nx":19,"ny":19,"refTime":"2026-05-21T03:00:00:Z","depth":0,"parameterNumber":3,"parameterNumberName":"V-component_of_WINDS"},"data":[0,0,0,5.5119,5.5124,5.5354,5.5355,5.5639,5.5641,0,0,0,0,0,0,0,0,0,0,0,5.5044,5.5046,5.5119,5.5125,5.5354,5.5355,5.5639,5.5641,0,0,0,0,0,0,0,0,0,0,0,5.5043,5.5045,5.5047,5.5125,5.5354,5.5355,5.5638,5.5469,0,0,0,0,0,0,0,0,0,0,5.5247,5.517,5.5045,5.5047,5.5127,5.5353,5.5355,5.5461,5.5479,5.553,0,5.5573,0,5.5611,5.566,5.5661,0,0,0,5.5131,5.5155,5.5223,5.5048,5.5129,5.5353,5.5252,5.5471,5.5492,5.5555,5.5577,5.5588,5.5616,5.5661,5.5663,5.5934,5.5935,0,0,5.5118,5.5082,5.5208,5.5236,5.5198,5.5245,5.5259,5.5484,5.5506,5.5578,5.5595,5.5621,5.5663,5.5665,5.5934,5.5935,0,0,0,5.5077,5.5073,5.5136,5.5224,5.5266,5.5251,5.5268,5.5496,5.552,5.5598,5.5624,5.5665,5.5668,5.5933,5.5934,5.5947,0,0,0,5.507,5.5049,5.513,5.511,5.5262,5.5384,5.5275,5.5504,5.553,5.5623,5.5665,5.5671,5.5932,5.5933,5.5945,5.596,0,0,0,5.5032,5.5045,5.5075,5.5108,5.5205,5.5381,5.5418,5.551,5.5546,5.5661,5.5672,5.5931,5.5933,5.5942,5.5956,5.6021,0,0,0,5.4981,5.5085,5.5075,5.5201,5.5203,5.5386,5.5416,5.5556,5.5655,5.5666,5.5932,5.5934,5.5941,5.5954,5.6018,5.6069,5.6086,0,0,5.5092,5.5097,5.5174,5.5172,5.5348,5.5354,5.5534,5.566,5.5705,5.5856,5.5863,5.5945,5.5956,5.602,5.6197,5.621,0,0,0,5.5197,5.5252,5.5307,5.5399,5.5497,5.5582,5.5685,5.5732,5.5861,5.5774,5.5987,5.5995,5.6034,5.606,5.6072,5.6108,5.5944,5.5944,5.5944,5.5304,5.5354,5.5485,5.5563,5.5652,5.5756,5.5834,5.5915,5.5941,5.599,5.6035,5.6136,5.6165,5.6174,5.6211,5.6066,5.6066,5.6066,5.6066,5.5472,5.5558,5.5588,5.5726,5.5779,5.5896,5.6001,5.6015,5.6133,5.6106,5.6143,5.611,5.6187,5.6223,5.6068,5.6067,5.6067,5.6067,5.6067,5.5548,5.5598,5.5652,5.579,5.5891,5.5967,5.6078,5.6122,5.6165,5.6202,5.6255,5.6255,5.6261,5.6224,5.6224,5.6225,5.6225,5.6225,5.6225,5.5606,5.5666,5.5754,5.5865,5.593,5.6021,5.6126,5.6192,5.6276,5.63,5.6301,5.6322,5.6185,5.615,5.6231,5.623,5.6229,5.6229,5.6228,5.5759,5.5731,5.5866,5.5931,5.6065,5.6163,5.6217,5.6347,5.6408,5.6462,5.6475,5.6366,5.6375,5.6366,5.6338,5.6463,5.6463,5.6463,5.6463,5.5824,5.5832,5.5979,5.608,5.6184,5.6246,5.6398,5.6481,5.6562,5.6604,5.6592,5.6557,5.6546,5.6562,5.6549,5.6523,5.6693,5.6693,5.6693,5.5921,5.5941,5.6061,5.6138,5.6247,5.6339,5.6484,5.6599,5.6686,5.6703,5.6637,5.6627,5.6572,5.6552,5.6568,5.6546,5.65,0,0]}]]